• Processing (Info)

  • MPEC 2005-U79 : 2005 UL5

    The following Minor Planet Electronic Circular may be linked-to from your own Web pages, but must not otherwise be redistributed electronically.

    A form allowing access to any MPEC is at the bottom of this page.


    Read MPEC 2005-U78 Read MPEC 2005-U80


    M.P.E.C. 2005-U79                                Issued 2005 Oct. 28, 17:23 UT
    
         The Minor Planet Electronic Circulars contain information on unusual
             minor planets and routine data on comets.  They are published
       on behalf of Commission 20 of the International Astronomical Union by the
              Minor Planet Center, Smithsonian Astrophysical Observatory,
                              Cambridge, MA 02138, U.S.A.
    
                      Supported in part by the Brinson Foundation
                      Supported in part by the TABASGO Foundation
                 Prepared using the Tamkin Foundation Computer Network
    
                                  MPC@CFA.HARVARD.EDU
              URL http://cfa-www.harvard.edu/iau/mpc.html  ISSN 1523-6714
    
                                       2005 UL5
    
    Observations:
         K05U05L* C2005 10 27.31479 04 13 57.49 -02 11 09.4          19.1   EU079704
         K05U05L  C2005 10 27.33805 04 13 53.87 -02 11 33.9          19.4   EU079704
         K05U05L  C2005 10 27.34967 04 13 51.94 -02 11 46.3          19.4   EU079704
         K05U05L  C2005 10 27.36128 04 13 50.14 -02 11 59.0          19.2   EU079704
         K05U05L  C2005 10 27.39108 04 13 45.48 -02 12 30.3          18.7 V EU079703
         K05U05L  C2005 10 27.39746 04 13 44.50 -02 12 38.0          18.9 V EU079703
         K05U05L  C2005 10 27.40419 04 13 43.39 -02 12 44.7          18.7 V EU079703
         K05U05L  C2005 10 27.41056 04 13 42.34 -02 12 52.4          18.8 V EU079703
         K05U05L  C2005 10 27.43700 04 13 38.10 -02 13 19.8          18.9 V EU079703
         K05U05L  C2005 10 27.44228 04 13 37.23 -02 13 25.2          18.8 V EU079703
         K05U05L  C2005 10 27.44755 04 13 36.44 -02 13 30.7          18.7 V EU079703
         K05U05L  C2005 10 27.45280 04 13 35.58 -02 13 36.3          18.7 V EU079703
         K05U05L  C2005 10 27.92135 04 12 25.79 -02 22 05.9          18.4 R EU079143
         K05U05L  C2005 10 27.92677 04 12 24.91 -02 22 11.7          18.7 R EU079143
         K05U05L  C2005 10 28.27829 04 11 28.78 -02 28 32.2          19.0 R EU079854
         K05U05L  C2005 10 28.28117 04 11 28.37 -02 28 34.4          19.0 R EU079854
         K05U05L  C2005 10 28.28406 04 11 27.90 -02 28 37.6          18.5 R EU079854
         K05U05L  C2005 10 28.28790 04 11 27.19 -02 28 41.1          18.5 R EU079854
         K05U05L  C2005 10 28.31065 04 11 22.89 -02 29 10.0          18.8 R EU079H36
         K05U05L  C2005 10 28.32039 04 11 21.15 -02 29 21.4          18.7 R EU079H36
         K05U05L  C2005 10 28.35822 04 11 14.57 -02 30 03.1          18.7 R EU079734
         K05U05L  C2005 10 28.36054 04 11 14.14 -02 30 05.8          18.6 R EU079734
         K05U05L  C2005 10 28.36287 04 11 13.75 -02 30 08.3          18.8 R EU079734
         K05U05L  C2005 10 28.36520 04 11 13.35 -02 30 10.7          18.8 R EU079734
    
    Observer details:
    143 Gnosca.  Observer S. Sposetti.  0.40-m f/4 reflector + CCD.
    703 Catalina Sky Survey.  Observer R. A. Kowalski.  Measurers E. C. Beshore,
        E. J. Christensen, G. J. Garradd, A. D. Grauer, R. E. Hill, R. A. Kowalski,
        S. M. Larson, R. H. McNaught.  0.68-m Schmidt + CCD.
    704 Lincoln Laboratory ETS, New Mexico.  Observers M. Bezpalko, L. Manguso,
        D. Torres, R. Kracke, A. Milner, H. Love.  Measurers J. Stuart, R. Sayer,
        J. Evans, J. Kommers.  1.0-m f/2.15 reflector + CCD.
    734 Farpoint Observatory.  Observer D. Tibbets.  0.7-m reflector + CCD.
    854 Sabino Canyon Observatory, Tucson.  Observer J. E. McGaha.  0.36-m f/10.0
        Schmidt-Cassegrain + CCD.
    H36 Sandlot Observatory, Scranton.  Observer G. Hug.  0.30-m
        Schmidt-Cassegrain + CCD.
    
    Orbital elements:
    2005 UL5                                                             PHA 0.011
    Epoch 2005 Aug. 18.0 TT = JDT 2453600.5                 MPC
    M 188.22811              (2000.0)            P               Q
    n   1.08654369     Peri.  127.54808     -0.97196523     +0.10268879
    a   0.9370683      Node    59.27448     -0.19801803     -0.84255455
    e   0.5697557      Incl.   14.24419     +0.12677715     -0.52873136
    P   0.91           H   20.2           G   0.15           U   9
    Residuals in seconds of arc
    051027 704  0.2-  1.1+    051027 703  0.3-  0.4-    051028 854  0.3-  0.1+
    051027 704  0.8+  1.2+    051027 703  0.7-  0.2-    051028 854  1.1-  0.9+
    051027 704  0.4-  1.1+    051027 703  0.1+  0.1-    051028 H36  1.0+  0.3+
    051027 704  0.3+  0.7+    051027 703  0.2-  0.2-    051028 H36  0.2+  0.3-
    051027 703  0.0   0.4+    051027 143  0.5+  0.1-    051028 734  0.2+  0.0
    051027 703  0.6+  0.5-    051027 143  0.6+  0.0     051028 734  0.2-  0.1-
    051027 703  0.1+  0.1-    051028 854  2.0-  0.9-    051028 734  0.1+  0.0
    051027 703  0.3-  1.1-    051028 854  0.7-  0.1+    051028 734  0.2+  0.2+
    
    Ephemeris:
    2005 UL5                 a,e,i = 0.94, 0.57, 14                  q = 0.4032
    Date    TT    R. A. (2000) Decl.     Delta      r     Elong.  Phase     V
    2005 10 27    04 14.71   -02 05.3    0.275    1.228   144.7    27.9    19.1
    2005 11 01    03 59.36   -03 43.5    0.227    1.195   150.4    24.2    18.5
    2005 11 06    03 34.44   -05 51.0    0.182    1.159   155.0    21.2    17.9
    2005 11 11    02 53.59   -08 38.7    0.143    1.120   153.8    22.9    17.3
    2005 11 16    01 46.60   -12 02.4    0.113    1.079   140.8    35.3    17.1
    2005 11 21    00 07.80   -14 40.4    0.0993   1.036   116.2    58.8    17.4
    2005 11 26    22 21.38   -14 22.8    0.105    0.989    88.2    85.7    18.3
    2005 12 01    21 00.91   -12 09.7    0.128    0.940    65.4   107.5    19.6
    2005 12 06    20 08.01   -10 02.3    0.160    0.888    48.9   123.3    21.1
    
    Kyle E. Smalley              (C) Copyright 2005 MPC           M.P.E.C. 2005-U79
    

    Read MPEC 2005-U78 Read MPEC 2005-U80


    MPEC number:

    Enter an MPEC number in one of the following forms:

    • 1997-B01 (the full form)
    • J97B01 (the packed version of the full form)
    • B01 (the abbreviated form)